sat.trackr.live / text

‹ back to catalog

FLOCK 4BE-22

NORAD 60494 · 2024-149AC

PAYLOAD ACTIVE UNKNOWN

§ Identity

Operator
Country
US
Launch date
2024-08-16
Launch site
AFWTR
Launch vehicle
Mass (kg)
RCS (m²)

Purposes: earth_obs

External: N2YO · Heavens-Above · Gunter

§ Orbital elements

Epoch: 2026-05-25T05:05:28.703328Z

Period
93.48 min
Inclination
97.3732°
Eccentricity
0.0003014
Mean motion
15.40374937 rev/d
Perigee alt
442.9 km
Apogee alt
447.1 km
Semi-major
6,823.1 km
B*
3.7706e-4
RAAN
228.5693°
Arg perigee
20.2288°
Mean anomaly
339.9077°
Rev number
9,876

§ Raw data

FLOCK 4BE-221 60494U 24149AC  26145.21213777  .00015159  00000+0  37706-3 0  99972 60494  97.3732 228.5693 0003014  20.2288 339.9077 15.40374937 98762

JSON: /api/v1/satellites/60494 · /tle

For live sub-satellite position, see the globe view (requires WebGL).

§ Visibility from observer

Set your observer location to see the next 7 days of passes ≥ 10°. The values pass through the URL so the page stays shareable.

No JS? Fill the form by hand. The geolocation button needs JavaScript.